Location: Bouillancy
(49.1149°N, 2.9308°E)
Time: 08:41:10
(UTC+00:00)

MetOp-A - Pass Details

Date: 30 September 2020
Orbit: 820 x 821 km, 98.5° (Epoch: 29 October)

Event Time Altitude Azimuth Distance (km) Brightness Sun altitude
Exits shadow 19:16:53 25° 144° (SE) 1,605 5.2 -18.4°
Maximum altitude 19:19:59 63° 71° (ENE) 913 4.1 -18.9°
Drops below altitude 10° 19:25:18 10° 351° (N) 2,430 6.9 -19.7°
Sets 19:27:40 0° 348° (NNW) 3,367 7.8 -20.1°
